Погода в Келлоге

Погода в Келлоге : погода сейчас, прогноз погоды и архив. Всё, что Вы хотите узнать о погоде в Келлоге!

Поиск расширенной информации на нашем сайте:

Другие новости

Новости СМИ2

Главная страница сайта

Новости сайта

03.07.2017

Напоминаем, что на нашем специализированном сайте Метеоцентр.Азия вы можете получить высокодетализированные автоматические прогнозы погоды по пунктам России, СНГ и мира в авиационном формате (включающие направление и скорость ветра, видимость, явления погоды, количество и форму облачности, нижнюю и верхнюю границу облачности).


Погода в Келлоге - сегодня

Время (UTC), дата Ветер
(°,м/с) 
Видим.   Явления Облачность Т
(°С)
Тd
(°С)
f(%) Тe
(°С)
Pmin
(гПа)
dP
(гПа)
Po
(мм)
O2
(г/м3)
Тmin Tmax R s Состояние
почвы
09 18.06.18 140 (ЮВ) н/о    н/о 
+25.9 +12.7 44 +31  1006.2  -0.9  749  273           
12 18.06.18 170 (Ю) н/о    н/о 
+27.3 +11.9 38 +31  1006  -0.2  749  272    +27.3       
15 18.06.18 050 (СВ) н/о    н/о 
+22.9 +14.6 59 +31  1005.2  -0.8  749  275           
18 18.06.18 тихо ()   н/о    н/о 
+18.9 +14.1 74 +26  1003.9  -1.5  748  279           
21 18.06.18 тихо ()   н/о    н/о 
+18.4 +13 71 +24  1002.9  -1  747  279           
00 19.06.18 030 (СВ) н/о    н/о 
+22.1 +13.6 59 +29  1002  -1  746  276  +15.2         
03 19.06.18 120 (ЮВ) н/о    н/о 
+27.9 +9.4 31 +28  999.8  -2.1  745  271           
06 19.06.18 130 (ЮВ) н/о    н/о 
+30.2 +6.2 22 +30  998.4  -1.3  744  269           
09 19.06.18 130 (ЮВ) н/о    н/о 
+31.7 +7.5 22 +32  997.2  -1.3  743  267           
12 19.06.18 220 (ЮЗ) н/о    н/о 
+21.7 +14.1 62 +29  997.7  0.3  743  275    +31.8     
15 19.06.18 050 (СВ) н/о    н/о 
+18.8 +15.2 80 +29  996.2  -1.6  742  276           
18 19.06.18 340 (С) н/о    н/о 
+16 +14.7 92 +25  995.1  -1.1  741  279           
21 19.06.18 тихо ()   н/о    н/о 
+13 +12.3 96 +18  994.5  -0.7  741  282           
00 20.06.18 020 (С) н/о    н/о 
+16.1 +14.4 90 +25  992.8  -1.6  739  278  +12.3       
03 20.06.18 120 (ЮВ) н/о    н/о 
+26.4 +16.5 55 +38  990.5  -2  738  268           
06 20.06.18 190 (Ю) н/о    н/о 
+24.5 +12.3 47 +29  991.6  739  271           
09 20.06.18 180 (Ю) 4-10{13}  н/о    н/о 
+22.2 +9.7 45 +23  995.1  3.4  741  274           
12 20.06.18 200 (Ю) 3{12}  н/о    н/о 
+21.6 +7.9 41 +22  996  3.4  742  276    +27.3       
15 20.06.18 150 (ЮВ) н/о    н/о 
+17.8 +10.7 63 +21  996.8  0.7  742  279           
18 20.06.18 120 (ЮВ) н/о    н/о 
+13.8 +8.5 70 +15  996.4  -0.5  742  283           
21 20.06.18 150 (ЮВ) н/о    н/о 
+13.4 +9.1 75 +15  996.3  0.1  742  283           
00 21.06.18 160 (Ю) н/о    н/о 
+15.8 +10 68 +18  995.7  -0.6  741  281  +13.3         
03 21.06.18 150 (ЮВ) н/о    н/о 
+20.2 +8.9 48 +20  994.4  -1.1  741  276           
06 21.06.18 170 (Ю) 4-10{10}  н/о    н/о 
+21.2 +6.6 39 +21  994.1  -0.4  740  276           
09 21.06.18 210 (ЮЗ) 4{10}  н/о    н/о 
+19.6 +7.6 46 +20  995  -0.2  741  277           
Время (UTC), дата Ветер
(°,м/с) 
Видим.   Явления Облачность Т
(°С)
Тd
(°С)
f(%) Тe
(°С)
Pmin
(гПа)
dP
(гПа)
Po
(мм)
O2
(г/м3)
Тmin Tmax R s Состояние
почвы

Для получения пояснительной информации подведите курсор к названию столбца.

ПОГОДА в Келлоге - архив

Всё, что Вы хотите узнать о погоде в Келлоге - удобно и подробно!

Выберите нужную дату (начиная с 1 января 2015* года) и нажмите кнопку "Найти".
Будут отображены архивные сводки погоды по пункту Келлог, начиная с указанной даты.


Отображать данные в формате CSV (для использования в таблицах Excel)


Внимание! Наш архив погоды предназначен исключительно для личного некоммерческого использования в познавательных целях. Если Вам необходимы официальные справки о состоянии погоды (для производственных, юридических, коммерческих и т.п. целей), обращайтесь в органы Росгидромета.

*Примечание: данная дата относится к архиву по метеостанциям СССР (Россия, СНГ, Балтия).
Архив по метеостанциям Зарубежной Европы и Азии (кроме Китая) хранится 10 дней, по другим регионам земного шара (Китай, Африка, Америка, Австралия, Океания) - 1 день.

Келлог - район местоположения метеостанции


Название, широта, долгота, высота метеостанции:
Келлог 62.4°ш. 86.6°д. 58 м над ур. моря [Российская Федерация]

Дополнительная информация

В oтличие oт бoльшинства пoгoдных сайтoв мы публикуем пoдрoбную метеoинфoрмацию в детальнoм прoфессиoнальнoм фoрмате.

Характеристики температуры и влажнoсти вoздуха измеряются на высoте 2 м в тени вдали oт зданий и деревьев.
Скoрoсть ветра измеряется на высoте 10 м (на урoвне рoста челoвека скoрoсть ветра ниже в 1.5-2 раза). Если метеoстанция нахoдится в гoрoде или в лесу, тo скoрoсть ветра занижена на 2-4 м/с пo сравнению с oткрытым местoм. Скoрoсть ветра над акватoриями крупных рек и oзёр, а также на вершинах хoлмoв на 2-5 м/с выше, чем в oбычных услoвиях.
Атмoсфернoе давление в разных тoчках местнoсти мoжет значительнo oтличаться oт давления на метеoстанции, в зависимoсти oт услoвий рельефа (при пoдъёме на 10 м давление пoнижается примернo на 1 мм рт.ст.).